Hourly Data Report for October 22, 2014

All times are specified in Local Standard Time (LST). Add 1 hour to adjust for Daylight Saving Time where and when it is observed.

KUGAARUK CLIMATE
NUNAVUT

68°32'15.060" N
89°47'47.020" W
15.80 m
2303094
71407
NBB

Download Data

Hourly Data (October 2014)
Hourly Data Report for October 22, 2014
Temp Definition
°C
Dew Point Temp Definition
°C
Rel Hum Definition
%
Wind Dir Definition
10's deg

Wind Spd Definition
km/h
Visibility Definition
km
Stn Press Definition
kPa
Hmdx Definition


Wind Chill Definition


Weather Definition


TIME
00:00 -11.1 -12.8 87 6 25   100.38   -20 LegendNANA
01:00 -10.3 -12.0 87 3 29   100.42   -20 LegendNANA
02:00 -11.9 -13.6 87 2 35   100.54   -23 LegendNANA
03:00 -13.8 -15.7 86 2 34   100.66   -25 LegendNANA
04:00 -16.1 -18.4 82 7 11   100.84   -23 LegendNANA
05:00 -16.1 -19.0 78 7 16   100.90   -25 LegendNANA
06:00 -16.7 -19.1 81 5 16   100.98   -25 LegendNANA
07:00 -16.9 -19.3 82 7 13   101.06   -25 LegendNANA
08:00 -17.3 -19.5 83 8 5   101.17   -21 LegendNANA
09:00 -16.3 -19.5 77 9 8   101.26   -22 LegendNANA
10:00 -17.4 -20.0 80 22 2   101.41   -19 LegendNANA
11:00 -17.7 -20.2 80 2 10   101.50   -24 LegendNANA
12:00 -17.6 -22.2 67 26 4   101.57   -21 LegendNANA
13:00 -16.9 -21.5 68 33 6   101.66   -21 LegendNANA
14:00 -17.7 -21.4 73 28 13   101.74   -26 LegendNANA
15:00 -17.6 -20.1 81 30 17   101.82   -27 LegendNANA
16:00 -18.4 -21.0 80 26 17   101.93   -28 LegendNANA
17:00 -20.3 -22.9 80 19 10   101.97   -28 LegendNANA
18:00 -20.1 -22.7 80 22 20   101.97   -31 LegendNANA
19:00 -21.7 -24.2 80 24 25   102.01   -34 LegendNANA
20:00 -20.0 -22.8 79 22 28   102.05   -32 LegendNANA
21:00 -21.0 -24.2 76 24 26   102.08   -33 LegendNANA
22:00 -20.8 -23.6 78 23 30   102.14   -34 LegendNANA
23:00 -20.9 -23.7 78 22 20   102.20   -32 LegendNANA

Notes on Data Quality.

Legend

  • E = Estimated
  • M = Missing
  • NA = Not Available
  • ‡ = Partner data that is not subject to review by the National Climate Archives
Date modified: